DW0281 Itzehoe DE current weather conditions

sailwx.info

Wind from 360

Air temperature 12.2° C
Dewpoint 9.6° C

Last reported at 2018-Jun-24 22:46 UTC.
Time now 2018-Jun-25 04:32 UTC

Location: N 53°53' E 009°32'.
View on Google Maps.

See reports from other nearby stations

  
Tides and Currents Weather Stations Pressure Air Temp Water Temp Dewpoint Dewpoint Depression Visibility Wind Speed Wind Dir Waves Ship Positions
date/time (UTC)wind fromknots sea level pressurealtimeterstation pressurevisibilityair tempwater tempwave heightnotes
2018-Jun-24 22:46 360 12.2
2018-Jun-24 22:33 270 1 gusting 4 11.7
2018-Jun-24 22:18 270 1 gusting 4 11.7
2018-Jun-24 22:03 270 0 gusting 1 11.7
2018-Jun-24 21:48 270 0 gusting 1 12.2
2018-Jun-24 21:33 270 2 gusting 5 12.2
2018-Jun-24 21:18 270 1 gusting 4 12.2
2018-Jun-24 21:03 270 1 gusting 4 12.2
2018-Jun-24 20:46 270 2 gusting 1 13.3
2018-Jun-24 20:33 270 2 gusting 5 12.8
2018-Jun-24 20:18 270 1 gusting 4 12.8
2018-Jun-24 19:48 270 2 gusting 7 13.3
2018-Jun-24 19:18 270 2 gusting 6 13.3
2018-Jun-24 19:03 270 2 gusting 6 13.3
2018-Jun-24 18:46 270 2 gusting 3 14.4
2018-Jun-24 18:31 180 2 gusting 1 14.4
2018-Jun-24 18:18 270 2 gusting 6 13.9
2018-Jun-24 18:03 270 4 gusting 8 13.9
2018-Jun-24 17:46 292 3 gusting 3 14.4
2018-Jun-24 17:33 270 4 gusting 8 13.9
2018-Jun-24 17:18 270 3 gusting 6 13.9
2018-Jun-24 17:03 270 3 gusting 9 13.9
2018-Jun-24 16:48 270 3 gusting 6 13.9
2018-Jun-24 16:33 270 4 gusting 7 13.9
2018-Jun-24 16:18 270 1 gusting 6 13.9
2018-Jun-24 16:01 157 3 gusting 1 14.4
2018-Jun-24 15:48 270 1 gusting 8 13.9
2018-Jun-24 15:18 270 2 gusting 4 14.4
2018-Jun-24 15:03 270 4 gusting 8 14.4
2018-Jun-24 14:48 270 4 gusting 11 14.4
2018-Jun-24 14:31 315 5 gusting 5 15.6
2018-Jun-24 14:18 270 3 gusting 6 15.0
2018-Jun-24 14:01 247 3 gusting 1 15.6
2018-Jun-24 13:46 135 3 gusting 2 15.6
2018-Jun-24 13:33 270 4 gusting 9 15.0
2018-Jun-24 13:18 270 2 gusting 5 15.0
2018-Jun-24 13:03 270 4 gusting 8 14.4
2018-Jun-24 12:48 270 4 gusting 9 15.0
2018-Jun-24 12:31 112 15.6
2018-Jun-24 12:01 112 15.6
2018-Jun-24 11:48 270 4 gusting 8 15.0
2018-Jun-24 11:33 270 4 gusting 8 15.0
2018-Jun-24 11:18 270 3 gusting 7 14.4
2018-Jun-24 11:03 270 6 gusting 10 15.0
2018-Jun-24 10:48 270 4 gusting 9 14.4
2018-Jun-24 10:33 270 3 gusting 8 14.4
2018-Jun-24 10:01 112 15.0
2018-Jun-24 09:48 270 4 gusting 7 14.4
2018-Jun-24 09:18 270 3 gusting 6 13.9
2018-Jun-24 09:03 270 3 gusting 9 13.9
2018-Jun-24 08:48 270 3 gusting 9 13.3
2018-Jun-24 08:33 270 5 gusting 9 13.9
2018-Jun-23 23:18 270 3 gusting 6 11.1
2018-Jun-23 22:48 270 2 gusting 6 11.1
2018-Jun-23 22:33 270 2 gusting 4 11.1
2018-Jun-23 22:18 270 3 gusting 6 11.1
2018-Jun-23 22:03 270 3 gusting 7 11.1
2018-Jun-23 21:48 270 3 gusting 6 11.1
2018-Jun-23 21:31 292 3 gusting 0 11.7
2018-Jun-23 20:48 270 2 gusting 6 11.7
2018-Jun-23 20:33 270 2 gusting 5 11.7
2018-Jun-23 20:16 225 3 gusting 4 11.7
2018-Jun-23 20:03 270 3 gusting 6 11.7
2018-Jun-23 19:48 270 3 gusting 6 11.7
2018-Jun-23 19:33 270 3 gusting 6 11.7
2018-Jun-23 19:16 225 3 gusting 4 11.7
2018-Jun-23 19:03 270 4 gusting 6 11.7
2018-Jun-23 18:46 270 3 gusting 4 11.7
2018-Jun-23 18:33 270 3 gusting 7 11.7
2018-Jun-23 18:18 270 3 gusting 6 12.2
2018-Jun-23 18:03 270 4 gusting 8 12.2
2018-Jun-23 17:46 247 4 gusting 5 12.2
2018-Jun-23 17:33 270 4 gusting 8 12.2
2018-Jun-23 17:18 270 3 gusting 6 12.2
2018-Jun-23 17:03 270 4 gusting 6 12.2
2018-Jun-23 16:46 247 12.8
2018-Jun-23 16:18 270 4 gusting 7 12.8
2018-Jun-23 16:03 270 2 gusting 6 12.8
2018-Jun-23 15:46 247 13.3
2018-Jun-23 15:33 270 4 gusting 7 12.8
2018-Jun-23 15:18 270 5 gusting 12 12.8
2018-Jun-23 14:46 247 13.3
2018-Jun-23 14:33 270 6 gusting 12 13.3
2018-Jun-23 14:18 270 6 gusting 11 13.9
2018-Jun-23 14:03 270 5 gusting 13 13.9
2018-Jun-23 13:48 270 6 gusting 13 13.9
2018-Jun-23 13:33 270 6 gusting 16 13.3
2018-Jun-23 13:18 270 5 gusting 13 13.3
2018-Jun-23 12:48 270 4 gusting 7 13.3
2018-Jun-23 12:31 247 13.9
2018-Jun-23 12:18 270 4 gusting 11 13.3
2018-Jun-23 12:03 270 6 gusting 12 13.9
2018-Jun-23 11:48 270 4 gusting 9 14.4
2018-Jun-23 11:31 247 14.4
2018-Jun-23 11:18 270 5 gusting 10 13.9
2018-Jun-23 10:48 270 6 gusting 12 14.4
2018-Jun-23 10:31 247 14.4
2018-Jun-23 10:18 270 6 gusting 13 13.9
2018-Jun-23 10:01 247 14.4
2018-Jun-23 09:33 270 6 gusting 11 13.3
2018-Jun-23 09:18 270 6 gusting 18 13.3
2018-Jun-23 09:03 270 6 gusting 17 13.3
2018-Jun-23 08:48 270 3 gusting 7 13.3
2018-Jun-23 08:33 270 5 gusting 9 13.3
2018-Jun-23 08:16 090 1 gusting 2 14.4
2018-Jun-23 08:03 270 5 gusting 13 13.3
2018-Jun-23 07:48 270 5 gusting 9 12.8